     2.10           OBSERVATION DATA    G (GPS)             RINEX VERSION / TYPE
teqc 2002Apr3 Duncan Agnew 20050511 23:58:19UTC             PGM / RUN BY / DATE
OSX 5.3|G3|cc|OSX 5.3+|G3+                                  COMMENT
BIT 2 OF LLI FLAGS DATA COLLECTED UNDER A/S CONDITION       COMMENT
D 26 B                                                      MARKER NAME
1722                                                        MARKER NUMBER
Dave Beltran Nolte Engineering                              OBSERVER / AGENCY
220331722 TRIMBLE 5700 NP 2.01 / SP 2.01                    REC # / TYPE / VERS
12582749 TRM41249.00                                        ANT # / TYPE
 -2302632.0000 -4844220.0000  3439706.0000                  APPROX POSITION XYZ
        2.0000        0.0000        0.0000                  ANTENNA: DELTA H/E/N
     1     1                                                WAVELENGTH FACT L1/2
     7    C1    L1    L2    P1    P2    S1    S2            # / TYPES OF OBSERV
SNR is mapped to RINEX snr flag value [1-9]                 COMMENT
L1: 3 -> 1; 8 -> 5; 40 -> 9                                 COMMENT
L2: 1 -> 1; 5 -> 5; 60 -> 9                                 COMMENT
  2004     6    30    16    41   30.0000000     GPS         TIME OF FIRST OBS
                                                            END OF HEADER
 04  6 30 16 41 30.0000000  0  7G 3G 6G14G15G18G21G22
  22704132.5084    -137842.47359    -93498.96957                  22704132.3164
        45.5004         29.5004
  23918466.6564      38301.31359     15312.59056                  23918468.3244
        42.5004         24.5004
  22949667.2504    -187997.41459   -126917.88757                  22949666.3594
        46.5004         29.7504
  21061324.2584    -136221.85259    -93033.49257                  21061323.3244
        51.2504         39.0004
  20903873.1724     -44743.04759    -33376.94958                  20903871.0164
        50.7504         41.0004
  20774968.1484     -54591.84059    -40008.09458                  20774965.2464
        51.7504         40.2504
  21000381.4694     -96216.60259    -69044.96558                  21000378.3324
        52.0004         40.2504
 04  6 30 16 41 40.0000000  0  7G 3G 6G14G15G18G21G22
  22695905.7504    -181075.89549   -127187.34847                  22695905.1414
        46.5004         30.0004
  23920729.6024      50192.00049     24578.01646                  23920730.6134
        42.5004         22.5004
  22938450.5784    -246940.50449   -172847.55147                  22938449.7194
        46.7504         30.7504
  21053130.0394    -179283.53149   -126588.04747                  21053128.8674
        51.2504         38.7504
  20901165.5634     -58971.63749    -44464.18048                  20901163.3164
        51.0004         40.5004
  20771680.4144     -71866.74249    -53469.06248                  20771678.0164
        51.0004         40.5004
  20994618.7814    -126498.41049    -92641.19148                  20994615.9844
        51.7504         40.2504
 04  6 30 16 41 50.0000000  0  8G 3G 6G 9G14G15G18G21G22
  22687678.9774    -224308.41049   -160875.00847                  22687678.1024
        47.0004         30.5004
  23922984.9844      62041.12149     33811.07046                  23922985.6644
        42.5004         22.5004
  23959284.4694    -192930.33659   -129356.34456                  23959285.4024
        37.5004         19.2504
  22927229.3134    -305909.03949   -218797.03947                  22927228.7154
        46.0004         31.0004
  21044929.9534    -222374.89549   -160165.73447                  21044929.0004
        50.2504         38.5004
  20898453.0864     -73226.51649    -55571.88348                  20898450.9844
        50.5004         40.2504
  20768390.7664     -89155.57849    -66940.88348                  20768388.4024
        51.0004         40.0004
  20988852.6954    -156799.61749   -116252.52048                  20988849.6564
        51.5004         40.5004
 04  6 30 16 42  0.0000000  0  8G 3G 6G 9G14G15G18G21G22
  22679457.6024    -267514.26649   -194541.91847                  22679456.8014
        46.5004         31.0004
  23925235.9774      73874.30549     43031.68846                  23925237.1454
        42.5004         22.5004
  23950885.7344    -237064.89849   -163746.87546                  23950886.1884
        38.2504         19.2504
  22916007.8444    -364877.18749   -264746.21947                  22916007.3244
        46.0004         31.2504
  21036728.9064    -265470.17649   -193746.46947                  21036727.9964
        51.2504         38.0004
  20895739.8984     -87482.07849    -66680.12548                  20895738.0824
        51.0004         41.0004
  20765103.1644    -106432.57049    -80403.47748                  20765100.4454
        52.2504         40.2504
  20983087.9694    -187094.54749   -139858.95348                  20983084.3134
        51.7504         40.2504
 04  6 30 16 42 10.0000000  0  8G 3G 6G 9G14G15G18G21G22
  22671243.2894    -310681.41049   -228178.65247                  22671242.9024
        46.5004         31.2504
  23927487.4304      85703.37549     52249.09846                  23927488.3634
        42.5004         24.0004
  23942491.0474    -281177.09849   -198119.98046                  23942491.9224
        37.5004         20.0004
  22904789.1414    -423832.98049   -310685.77047                  22904788.8094
        46.0004         31.0004
  21028529.8834    -308557.39549   -227320.91847                  21028528.5824
        50.5004         38.7504
  20893029.4844    -101726.46949    -77779.65248                  20893027.2974
        51.0004         40.0004
  20761819.7664    -123685.80149    -93847.55147                  20761817.3484
        51.5004         39.2504
  20977326.6174    -217371.30549   -163451.24248                  20977322.8594
        51.7504         40.0004
 04  6 30 16 42 20.0000000  0  8G 3G 6G 9G14G15G18G21G22
  22663037.7114    -353799.73849   -261777.34847                  22663038.0514
        46.7504         31.0004
  23929739.3134      97538.19549     61471.00046                  23929740.1174
        42.7504         22.7504
  23934103.5084    -325256.74649   -232467.76246                  23934103.9384
        37.5004         19.0004
  22893574.3834    -482766.17649   -356607.73847                  22893573.9224
        46.0004         31.0004
  21020333.9454    -351626.37549   -260881.17247                  21020332.7424
        51.0004         38.7504
  20890322.9924    -115949.66049    -88862.67648                  20890320.9964
        50.5004         40.2504
  20758543.3364    -140905.14849   -107265.24648                  20758540.9654
        52.0004         40.2504
  20971570.4534    -247619.85949   -187021.55148                  20971567.0984
        51.7504         40.2504
 04  6 30 16 42 30.0000000  0  8G 3G 6G 9G14G15G18G21G22
  22654842.5234    -396865.69949   -295335.23447                  22654842.5314
        46.2504         31.2504
  23931993.6804     109382.43049     70700.23446                  23931994.1994
        42.5004         22.0004
  23925722.0474    -369300.21549   -266787.32446                  23925722.5784
        37.0004         18.5004
  22882364.6804    -541673.24649   -402509.33247                  22882364.3714
        44.7504         31.5004
  21012142.5634    -394673.57049   -294424.43447                  21012141.4654
        51.0004         39.2504
  20887621.1644    -130148.07449    -99926.37948                  20887619.1454
        50.7504         40.2504
  20755273.3984    -158087.12949   -120653.80548                  20755271.1294
        51.7504         40.5004
  20965820.4224    -277836.70749   -210567.14548                  20965817.1054
        51.7504         40.5004
 04  6 30 16 42 40.0000000  0  8G 3G 6G 9G14G15G18G21G22
  22646657.8524    -439876.25449   -328849.94547                  22646657.6844
        46.2504         31.0004
  23934249.5394     121238.71149     79938.85546                  23934250.5434
        42.0004         22.7504
  23917348.9534    -413304.49249   -301076.36746                  23917349.0124
        37.0004         19.2504
  22871160.7664    -600551.14149   -448388.19947                  22871160.4144
        46.0004         32.2504
  21003955.6174    -437696.00049   -327948.41447                  21003954.5124
        51.5004         39.2504
  20884924.4694    -144318.91049   -110968.60248                  20884922.5004
        50.5004         40.0004
  20752011.2974    -175228.73449   -134010.90648                  20752008.9384
        51.5004         40.2504
  20960076.8914    -308019.01649   -234085.83248                  20960073.7424
        51.7504         40.5004
 04  6 30 16 42 50.0000000  0  8G 3G 6G 9G14G15G18G21G22
  22638485.1174    -482826.15649   -362317.40247                  22638484.7974
        47.0004         31.2504
  23936508.5634     133112.10249     89190.80946                  23936510.1994
        41.7504         22.7504
  23908984.0314    -457264.17649   -335330.63346                  23908984.3284
        38.2504         19.2504
  22859962.5314    -659394.47349   -494240.12947                  22859962.8984
        45.5004         32.5004
  20995774.5474    -480688.36749   -361448.96147                  20995773.6134
        51.0004         38.7504
  20882234.1174    -158456.91449   -121985.23448                  20882231.9734
        50.5004         40.2504
  20748758.1804    -192324.73849   -147332.47348                  20748755.7664
        51.2504         40.5004
  20954340.8364    -338161.59049   -257573.55148                  20954337.5124
        51.5004         40.5004
 04  6 30 16 43  0.0000000  0  8G 3G 6G 9G14G15G18G21G22
  22630323.3674    -525715.41449   -395737.60547                  22630322.7854
        46.7504         31.5004
  23938771.7114     145002.57849     98456.05146                  23938772.3164
        39.7504         22.7504
  23900626.4694    -501179.30549   -369550.18046                  23900627.0514
        37.5004         20.2504
  22848772.1254    -718203.25449   -540065.13747                  22848771.8404
        46.0004         32.2504
  20987598.7894    -523650.76649   -394926.15247                  20987597.7544
        50.7504         39.0004
  20879550.0634    -172562.34449   -132976.48848                  20879547.9694
        50.7504         40.5004
  20745513.6094    -209375.18749   -160618.54348                  20745511.3914
        51.2504         40.2504
  20948612.5634    -368264.50449   -281030.37148                  20948609.1524
        52.2504         40.2504
 04  6 30 16 43 10.0000000  0  8G 3G 6G 9G14G15G18G21G22
  22622173.5394    -568541.03949   -429108.21947                  22622173.1214
        46.5004         31.2504
  23941037.8364     156912.98849    107736.85546                  23941039.3834
        41.0004         22.7504
  23892278.5784    -545046.69949   -403732.54346                  23892279.6134
        38.7504         20.2504
  22837588.4774    -776974.41449   -585860.83247                  22837587.8714
        47.0004         32.5004
  20979429.7974    -566580.07449   -428377.55547                  20979428.7814
        51.5004         38.7504
  20876872.4694    -186632.25849   -143940.06248                  20876870.6844
        50.5004         40.2504
  20742278.1174    -226377.05149   -173866.75448                  20742275.7424
        51.2504         39.5004
  20942892.4224    -398324.78949   -304453.97348                  20942889.4804
        51.5004         40.2504
 04  6 30 16 43 20.0000000  0  8G 3G 6G 9G14G15G18G21G22
  22614036.9924    -611301.61349   -462428.14547                  22614036.1374
        47.0004         31.7504
  23943308.7114     168844.49249    117034.08246                  23943310.2584
        41.0004         24.0004
  23883939.6564    -588865.03948   -437876.73846                  23883940.8134
        35.0004         19.0004
  22826412.0784    -835706.55549   -631626.12147                  22826411.6414
        47.0004         31.7504
  20971267.3134    -609474.94949   -461802.13747                  20971266.2424
        51.0004         38.5004
  20874202.2034    -200665.36349   -154874.96148                  20874200.2154
        50.7504         40.2504
  20739052.4614    -243329.03149   -187076.09048                  20739050.0514
        52.0004         39.7504
  20937180.3594    -428341.27049   -327843.43448                  20937177.0004
        51.5004         40.7504
 04  6 30 16 43 30.0000000  0  8G 3G 6G 9G14G15G18G21G22
  22605911.6254    -653998.94149   -495698.79347                  22605911.5314
        46.5004         30.2504
  23945583.2114     180795.34049    126346.40246                  23945584.6174
        41.0004         22.7504
  23875611.0634    -632636.01249   -471983.93046                  23875611.5354
        36.5004         18.5004
  22815242.5314    -894401.49649   -677362.43747                  22815242.1844
        45.7504         31.7504
  20963110.6414    -652337.22349   -495201.30947                  20963109.7194
        51.2504         38.0004
  20871538.4304    -214663.55949   -165782.64548                  20871536.3594
        51.2504         39.7504
  20735835.7344    -260232.96549   -200247.99648                  20735833.5944
        51.0004         39.7504
  20931476.5084    -458315.78149   -351200.19548                  20931473.3954
        52.2504         40.5004
 04  6 30 16 43 40.0000000  0  8G 3G 6G 9G14G15G18G21G22
  22597798.8674    -696632.00449   -528919.35947                  22597798.6764
        46.0004         31.0004
  23947860.2584     192766.00049    135674.12946                  23947862.3554
        40.0004         22.0004
  23867290.8364    -676358.51248   -506053.38746                  23867291.6564
        35.5004         19.2504
  22804080.7034    -953058.18449   -723068.93447                  22804080.1294
        45.5004         31.5004
  20954960.5554    -695165.92249   -528574.32447                  20954959.4614
        51.5004         39.0004
  20868881.5084    -228625.93749   -176662.43048                  20868879.6174
        51.0004         40.2504
  20732628.3134    -277087.85949   -213381.68748                  20732626.1524
        51.2504         40.5004
  20925780.7274    -488247.41449   -374523.54748                  20925777.4104
        52.2504         41.0004
 04  6 30 16 43 50.0000000  0  8G 3G 6G 9G14G15G18G21G22
  22589698.4384    -739199.75449   -562089.03147                  22589698.2664
        46.2504         31.2504
  23950142.8754     204757.59849    145018.19146                  23950144.5984
        39.5004         22.7504
  23858980.2814    -720031.50449   -540084.30546                  23858981.0704
        36.2504         19.0004
  22792926.4384   -1011675.55949   -768744.80547                  22792926.0274
        45.7504         32.2504
  20946817.1644    -737959.91049   -561920.28947                  20946815.8874
        51.2504         39.0004
  20866231.5314    -242551.60549   -187513.60548                  20866229.5084
        50.7504         40.0004
  20729430.2584    -293892.77349   -226476.42648                  20729428.0704
        51.7504         40.0004
  20920093.1954    -518135.16449   -397812.70748                  20920089.9144
        51.7504         40.7504
 04  6 30 16 44  0.0000000  0  8G 3G 6G 9G14G15G18G21G22
  22581610.3754    -781703.04749   -595208.47347                  22581610.0084
        46.7504         31.2504
  23952428.3134     216769.11349    154377.76646                  23952430.6094
        39.7504         22.5004
  23850678.9844    -763655.79349   -574077.23446                  23850679.3754
        39.0004         19.5004
  22781778.9924   -1070254.39849   -814390.64547                  22781778.2774
        46.0004         31.5004
  20938680.0474    -780720.04349   -595239.87547                  20938678.7584
        50.7504         39.0004
  20863588.4384    -256441.48049   -198336.89548                  20863586.4264
        51.0004         40.2504
  20726242.0944    -310648.55949   -239532.89148                  20726239.6294
        51.7504         40.5004
  20914413.7584    -547979.95349   -421068.39548                  20914410.8404
        52.2504         40.5004
 04  6 30 16 44 10.0000000  0  8G 3G 6G 9G14G15G18G21G22
  22573534.9694    -824138.81649   -628275.30547                  22573534.6644
        47.0004         31.5004
  23954718.5234     228803.47349    163755.14546                  23954720.5744
        40.0004         22.0004
  23842387.1414    -807228.29349   -608029.79346                  23842387.2894
        36.5004         20.0004
  22770639.6954   -1128791.63749   -860004.06647                  22770639.2034
        46.5004         32.5004
  20930550.2814    -823443.35249   -628530.77047                  20930549.3364
        51.5004         39.0004
  20860952.2664    -270292.70349   -209130.06248                  20860950.3404
        50.7504         40.0004
  20723063.1884    -327352.19149   -252548.71148                  20723061.0204
        51.7504         40.0004
  20908743.1414    -577778.93749   -444288.38748                  20908740.0824
        51.7504         41.0004
 04  6 30 16 44 20.0000000  0  8G 3G 6G 9G14G15G18G21G22
  22565472.7894    -866508.26649   -661290.45747                  22565472.0474
        46.5004         32.0004
  23957012.7424     240859.29749    173149.25446                  23957014.7234
        40.5004         22.0004
  23834105.1884    -850750.07849   -641942.81646                  23834105.5594
        37.7504         19.0004
  22759507.9614   -1187288.44949   -905585.97747                  22759507.0984
        46.2504         30.7504
  20922427.1644    -866130.94549   -661793.83247                  20922426.0434
        51.2504         38.7504
  20858323.8754    -284106.52749   -219894.08248                  20858321.3594
        50.5004         40.0004
  20719894.4924    -344004.82449   -265524.78548                  20719892.2274
        51.5004         39.7504
  20903081.1254    -607533.36749   -467473.64848                  20903078.0124
        51.5004         40.2504
 04  6 30 16 44 30.0000000  0  8G 3G 6G 9G14G15G18G21G22
  22557422.5164    -908812.16449   -694254.53147                  22557421.9884
        46.5004         32.0004
  23959310.4774     252935.62149    182559.33646                  23959312.5434
        40.5004         23.0004
  23825832.9454    -894221.87149   -675816.94546                  23825833.3204
        38.2504         19.5004
  22748383.8444   -1245745.56649   -951136.96947                  22748383.2854
        45.7504         30.7504
  20914310.5164    -908783.70749   -695029.74647                  20914309.1174
        50.5004         38.7504
  20855702.0234    -297883.80949   -230629.63348                  20855699.9614
        50.7504         40.5004
  20716735.2584    -360607.37549   -278461.84048                  20716732.6024
        51.0004         39.5004
  20897427.2894    -637244.14149   -490624.90648                  20897424.1454
        51.2504         39.7504
 04  6 30 16 44 40.0000000  0  8G 3G 6G 9G14G15G18G21G22
  22549384.9534    -951050.27049   -727167.34047                  22549384.0944
        46.5004         31.5004
  23961612.7034     265032.37949    191985.32846                  23961614.8634
        40.7504         22.2504
  23817570.1884    -937643.46549   -709651.95346                  23817570.4224
        39.0004         19.0004
  22737267.4614   -1304162.67249   -996656.77747                  22737266.8914
        46.2504         29.5004
  20906200.7194    -951401.33249   -728238.28547                  20906199.8404
        51.0004         38.2504
  20853087.2894    -311624.50449   -241336.66047                  20853085.4414
        50.7504         39.2504
  20713585.4384    -377159.58649   -291359.66848                  20713582.9414
        51.0004         39.5004
  20891782.0704    -666911.15249   -513742.05947                  20891778.6884
        51.7504         39.2504
 04  6 30 16 44 50.0000000  0  8G 3G 6G 9G14G15G18G21G22
  22541359.9844    -993221.01249   -760027.66047                  22541359.2934
        46.7504         32.5004
  23963919.3054     277151.20349    201428.50446                  23963920.8634
        40.7504         22.7504
  23809317.5004    -981013.24649   -743446.57046                  23809317.9414
        39.7504         20.2504
  22726158.9064   -1362538.23449  -1042144.20747                  22726158.7344
        46.2504         30.2504
  20898097.5784    -993982.29349   -761418.25447                  20898096.7194
        51.0004         39.0004
  20850479.5944    -325327.10249   -252014.03148                  20850477.9344
        51.2504         40.0004
  20710445.4614    -393659.99649   -304217.14148                  20710443.0124
        51.7504         40.0004
  20886145.2424    -696532.80549   -536823.86748                  20886141.9414
        51.2504         40.7504
 04  6 30 16 45  0.0000000  0  8G 3G 6G 9G14G15G18G21G22
  22533346.7974   -1035328.05949   -792838.34447                  22533346.6214
        46.5004         32.0004
  23966228.5944     289288.14549    210885.84446                  23966230.5084
        42.0004         24.7504
  23801072.9534   -1024334.75449   -777203.58646                  23801073.9454
        39.5004         20.7504
  22715057.8204   -1420875.82449  -1087602.07047                  22715057.0204
        46.0004         30.7504
  20890001.1724   -1036530.21949   -794572.48047                  20890000.1724
        51.0004         39.0004
  20847878.9384    -338995.25849   -262664.53948                  20847877.1334
        50.5004         40.2504
  20707314.4924    -410112.15649   -317037.00848                  20707312.4924
        52.2504         40.2504
  20880515.8834    -726112.87549   -559873.27748                  20880512.9774
        51.7504         40.7504
 04  6 30 16 45 10.0000000  0  8G 3G 6G 9G14G15G18G21G22
  22525346.8284   -1077368.60549   -825597.22347                  22525346.5004
        47.2504         33.0004
  23968542.2974     301446.01249    220359.44146                  23968544.0744
        41.7504         25.5004
  23792838.9454   -1067605.13349   -810920.74646                  23792839.3404
        40.0004         20.2504
  22703964.4144   -1479172.66449  -1133028.16447                  22703963.8364
        46.2504         30.7504
  20881911.3674   -1079042.35549   -827698.81648                  20881910.5274
        51.0004         39.5004
  20845284.7664    -352626.44149   -273286.26248                  20845283.0354
        50.7504         40.0004
  20704193.6254    -426513.40649   -329817.21148                  20704191.1214
        51.5004         40.7504
  20874895.8594    -755648.80949   -582888.28548                  20874892.2854
        51.7504         41.5004
 04  6 30 16 45 20.0000000  0  8G 3G 6G 9G14G15G18G21G22
  22517359.5394   -1119343.71549   -858305.09447                  22517359.3874
        46.5004         32.5004
  23970859.3054     313623.61749    229848.43846                  23970861.6214
        42.0004         25.2504
  23784615.5164   -1110825.42249   -844598.88346                  23784614.8164
        41.2504         20.5004
  22692878.1484   -1537429.70749  -1178423.25047                  22692877.6764
        46.2504         31.5004
  20873828.1954   -1121519.70749   -860798.05148                  20873827.1454
        51.5004         39.5004
  20842697.7814    -366221.73849   -283880.00448                  20842695.9844
        51.0004         40.5004
  20701081.9924    -442864.82449   -342558.58248                  20701080.1414
        52.0004         40.2504
  20869283.4224    -785141.62949   -605869.70748                  20869280.1914
        51.7504         41.0004
 04  6 30 16 45 30.0000000  0  8G 3G 6G 9G14G15G18G21G22
  22509384.1564   -1161254.69149   -890962.99647                  22509383.9024
        47.7504         32.2504
  23973180.0634     325819.35949    239351.57046                  23973182.7344
        41.5004         24.5004
  23776399.8204   -1153996.89549   -878238.99246                  23776399.5434
        39.7504         21.5004
  22681799.7664   -1595648.33249  -1223788.38747                  22681799.1804
        46.0004         30.0004
  20865751.4614   -1163963.56249   -893871.18047                  20865750.4344
        50.7504         39.2504
  20840117.2664    -379782.61749   -294446.92648                  20840115.0594
        50.5004         39.7504
  20697979.7274    -459167.81649   -355262.21948                  20697977.4774
        51.7504         40.0004
  20863678.9844    -814592.77749   -628818.65248                  20863675.7584
        51.7504         41.2504
 04  6 30 16 45 40.0000000  0  8G 3G 6G 9G14G15G18G21G22
  22501421.5554   -1203099.93749   -923569.68447                  22501421.2624
        48.0004         32.7504
  23975504.8134     338034.46549    248869.78146                  23975507.0864
        41.0004         25.2504
  23768194.2194   -1197117.91049   -911839.76646                  23768194.3284
        40.7504         22.2504
  22670728.3204   -1653826.87149  -1269122.29347                  22670727.8874
        45.7504         30.0004
  20857681.2194   -1206372.39149   -926917.02047                  20857680.4574
        50.2504         39.2504
  20837543.6884    -393307.64849   -304985.92248                  20837541.8404
        50.5004         39.5004
  20694886.7114    -475420.68749   -367926.79747                  20694884.5904
        51.5004         39.2504
  20858082.9224    -844000.73849   -651733.94548                  20858079.6294
        51.5004         40.5004
 04  6 30 16 45 50.0000000  0  8G 3G 6G 9G14G15G18G21G22
  22493470.6644   -1244879.71549   -956125.34847                  22493470.7704
        47.2504         31.5004
  23977833.0634     350268.85549    258403.03146                  23977835.3594
        41.2504         24.2504
  23759997.7664   -1240188.66449   -945401.36346                  23759998.4694
        42.0004         22.2504
  22659664.8444   -1711965.58249  -1314425.16847                  22659664.1094
        46.5004         29.2504
  20849617.7034   -1248746.46549   -959935.77347                  20849616.6914
        50.5004         38.5004
  20834976.5634    -406797.07049   -315497.15648                  20834974.6994
        51.2504         39.5004
  20691803.4614    -491623.78949   -380552.59048                  20691800.9574
        51.0004         39.5004
  20852494.8674    -873365.91849   -674615.90248                  20852491.4414
        51.5004         40.5004
 04  6 30 16 46  0.0000000  0  8G 3G 6G 9G14G15G18G21G22
  22485532.1174   -1286596.50849   -988631.93747                  22485532.1254
        46.5004         32.2504
  23980163.9224     362519.91049    267949.23846                  23980166.7274
        40.7504         24.7504
  23751810.6884   -1283211.55549   -978925.69546                  23751811.1214
        43.2504         22.5004
  22648608.7734   -1770066.80149  -1359698.84047                  22648608.0594
        45.0004         31.0004
  20841560.4694   -1291088.20749   -992929.33647                  20841559.1684
        50.5004         39.0004
  20832415.8444    -420253.50849   -325982.71148                  20832413.9344
        51.2504         40.2504
  20688728.9454    -507779.59449   -393141.53548                  20688726.8524
        51.2504         40.0004
  20846914.5084    -902690.81249   -697466.46948                  20846911.2344
        51.7504         41.0004
 04  6 30 16 46 10.0000000  0  8G 3G 6G 9G14G15G18G21G22
  22477606.4924   -1328247.59449  -1021087.32447                  22477605.7974
        46.5004         32.0004
  23982499.3364     374789.91049    277510.23846                  23982501.8204
        40.5004         24.2504
  23743633.7034   -1326183.87149  -1012410.61346                  23743633.7814
        40.7504         22.2504
  22637560.3754   -1828127.91449  -1404941.25447                  22637559.4614
        45.7504         31.0004
  20833509.2734   -1333394.94149  -1025895.61747                  20833508.4884
        50.5004         39.0004
  20829862.1414    -433674.41449   -336440.56248                  20829859.9654
        50.7504         39.5004
  20685664.0784    -523885.49249   -405691.59448                  20685661.8524
        51.2504         39.5004
  20841342.0784    -931972.84449   -720283.64548                  20841339.1804
        51.2504         41.2504
 04  6 30 16 46 20.0000000  0  8G 3G 6G 9G14G15G18G21G22
  22469692.5864   -1369833.85949  -1053492.21547                  22469692.3164
        47.7504         32.5004
  23984838.1884     387078.06349    287085.38746                  23984840.1954
        39.7504         24.5004
  23735465.5084   -1369106.39549  -1045856.70746                  23735465.8284
        40.0004         22.5004
  22626519.0474   -1886149.69949  -1450153.02047                  22626518.0124
        46.0004         29.5004
  20825465.3754   -1375667.57849  -1058835.33647                  20825464.5634
        49.7504         39.0004
  20827314.8524    -447060.69149   -346871.43048                  20827312.5984
        51.2504         40.5004
  20682609.0474    -539942.30949   -418203.40248                  20682606.3754
        51.5004         39.5004
  20835778.1174    -961212.99249   -743068.17648                  20835774.7234
        51.5004         40.7504
 04  6 30 16 46 30.0000000  0  8G 3G 6G 9G14G15G18G21G22
  22461791.5784   -1411356.66849  -1085847.65247                  22461790.7974
        48.5004         32.2504
  23987178.4454     399382.62949    296673.30546                  23987181.5864
        39.7504         24.0004
  23727307.1484   -1411980.52749  -1079265.09446                  23727307.5124
        40.5004         23.0004
  22615484.9924   -1944133.55949  -1495335.24247                  22615483.8324
        46.0004         29.5004
  20817427.1644   -1417907.46549  -1091749.53547                  20817426.4884
        50.2504         39.2504
  20824773.5084    -460413.90249   -357276.53948                  20824771.6484
        50.7504         40.2504
  20679562.1094    -555951.53949   -430678.12948                  20679560.2664
        51.5004         40.2504
  20830221.6174    -990412.70349   -765821.19948                  20830218.2384
        52.0004         40.5004
 04  6 30 16 46 40.0000000  0  8G 3G 6G 9G14G15G18G21G22
  22453901.9144   -1452817.35549  -1118154.68447                  22453901.1094
        48.2504         31.7504
  23989523.5084     411702.35549    306273.04746                  23989526.1844
        39.7504         24.5004
  23719157.2274   -1454807.39149  -1112636.66846                  23719158.1954
        42.2504         23.5004
  22604457.9924   -2002080.69549  -1540488.84847                  22604457.0274
        45.7504         30.5004
  20809395.3284   -1460115.82849  -1124639.16447                  20809394.2774
        50.7504         39.2504
  20822238.9384    -473735.46149   -367656.98048                  20822236.7424
        51.5004         40.0004
  20676524.5394    -571914.41849   -443116.73848                  20676522.4454
        51.5004         40.2504
  20824672.6334   -1019573.39549   -788543.81248                  20824669.0784
        52.5004         40.5004
 04  6 30 16 46 50.0000000  0  8G 3G 6G 9G14G15G18G21G22
  22446023.9144   -1494213.78149  -1150411.64147                  22446023.9024
        47.2504         32.0004
  23991871.3834     424039.13749    315886.06346                  23991873.4614
        40.7504         25.5004
  23711016.8754   -1497584.84449  -1145969.75846                  23711018.4454
        43.2504         22.5004
  22593438.7894   -2059988.87149  -1585612.09847                  22593437.5394
        45.7504         29.5004
  20801370.2584   -1502290.53949  -1157502.56647                  20801368.9734
        51.2504         38.7504
  20819710.2274    -487023.21949   -378011.07448                  20819707.7584
        51.0004         39.5004
  20673496.1644    -587828.87549   -455517.61748                  20673494.1604
        51.5004         40.0004
  20819131.2814   -1048692.98049   -811234.39148                  20819128.0824
        52.0004         40.5004
 04  6 30 16 47  0.0000000  0  8G 3G 6G 9G14G15G18G21G22
  22438158.7274   -1535546.35949  -1182618.84047                  22438158.4884
        47.7504         32.2504
  23994221.8834     436392.44949    325511.97746                  23994224.2304
        40.2504         24.5004
  23702886.0784   -1540313.27049  -1179264.60246                  23702887.1334
        44.2504         24.5004
  22582426.7974   -2117858.59049  -1630705.39147                  22582425.5744
        46.5004         29.0004
  20793350.8284   -1544432.06249  -1190340.11347                  20793349.6294
        51.0004         39.0004
  20817188.0704    -500277.84449   -388339.36348                  20817185.6844
        50.5004         39.7504
  20670477.0004    -603695.45749   -467881.18448                  20670474.7774
        51.5004         39.7504
  20813597.7344   -1077772.05549   -833893.41048                  20813594.4694
        51.7504         40.7504
 04  6 30 16 47 10.0000000  0  8G 3G 6G 9G14G15G18G21G22
  22430305.6254   -1576815.14149  -1214776.32447                  22430305.3954
        48.0004         31.7504
  23996575.6024     448762.14849    335150.64146                  23996578.5204
        40.2504         24.2504
  23694764.5234   -1582992.66049  -1212521.26646                  23694764.9064
        43.5004         23.7504
  22571421.4614   -2175689.82449  -1675768.68047                  22571420.3014
        46.5004         29.5004
  20785337.5164   -1586540.39849  -1223151.80947                  20785336.9694
        51.2504         38.2504
  20814671.8204    -513499.42649   -398641.89147                  20814669.7424
        51.0004         39.0004
  20667466.8674    -619514.21149   -480207.49247                  20667464.3794
        51.0004         39.2504
  20808071.8204   -1106810.75849   -856520.97748                  20808068.7584
        52.0004         40.5004
 04  6 30 16 47 20.0000000  0  8G 3G 6G 9G14G15G18G21G22
  22422464.4774   -1618020.85549  -1246884.67647                  22422464.2814
        47.0004         32.5004
  23998932.7274     461147.08249    344801.19546                  23998935.4144
        40.2504         25.0004
  23686652.4844   -1625623.68749  -1245740.22346                  23686652.6414
        44.2504         25.2504
  22560423.5314   -2233483.24249  -1720802.50847                  22560422.4964
        46.7504         30.2504
  20777330.2894   -1628616.35249  -1255938.26247                  20777329.6214
        50.7504         39.2504
  20812162.0234    -526688.74649   -408919.29348                  20812159.7544
        51.0004         39.7504
  20664465.4064    -635285.84849   -492497.09048                  20664463.1884
        51.5004         40.0004
  20802553.7194   -1135809.90649   -879117.71548                  20802550.4184
        51.5004         41.0004
 04  6 30 16 47 30.0000000  0  8G 3G 6G 9G14G15G18G21G22
  22414635.1724   -1659164.68749  -1278944.80147                  22414634.4224
        47.5004         32.0004
  24001292.2274     473545.91849    354462.57446                  24001294.8164
        40.2504         24.2504
  23678548.3834   -1668207.51649  -1278922.41846                  23678548.4454
        43.5004         24.7504
  22549433.0864   -2291240.15249  -1765807.88347                  22549431.9804
        46.2504         30.0004
  20769329.8054   -1670661.01649  -1288700.33247                  20769329.0124
        51.0004         38.5004
  20809658.0634    -539847.11749   -419172.57448                  20809656.1134
        51.0004         40.0004
  20661472.9774    -651011.57049   -504750.90647                  20661470.8484
        50.7504         39.2504
  20797042.5784   -1164770.69549   -901684.57048                  20797039.4144
        51.7504         40.5004
 04  6 30 16 47 40.0000000  0  8G 3G 6G 9G14G15G18G21G22
  22406817.2894   -1700247.15249  -1310957.11347                  22406817.0474
        46.0004         32.7504
  24003654.3364     485958.24649    364134.46946                  24003656.9344
        40.5004         24.7504
  23670453.5944   -1710744.56249  -1312068.17646                  23670454.3634
        43.7504         24.2504
  22538449.0554   -2348960.89549  -1810785.07847                  22538447.7814
        47.0004         31.0004
  20761334.9924   -1712674.98049  -1321438.48447                  20761333.9414
        50.5004         39.2504
  20807159.8984    -552975.25449   -429402.29748                  20807158.1644
        50.2504         40.2504
  20658489.1954    -666692.00449   -516969.43048                  20658486.5744
        51.2504         39.5004
  20791538.7504   -1193693.82449   -924222.07048                  20791535.4494
        52.2504         41.0004
 04  6 30 16 47 50.0000000  0  8G 3G 6G 9G14G15G18G21G22
  22399010.9064   -1741267.69549  -1342921.16447                  22399011.0164
        47.0004         32.2504
  24006018.0944     498384.44949    373817.16446                  24006021.5204
        40.5004         24.5004
  23662368.5394   -1753234.32849  -1345177.07046                  23662368.7584
        44.2504         24.5004
  22527472.2194   -2406644.96149  -1855733.68747                  22527471.1484
        47.0004         30.7504
  20753346.0394   -1754657.69949  -1354152.29348                  20753344.7194
        50.7504         39.5004
  20804667.3284    -566072.73049   -439608.12548                  20804665.6374
        50.7504         40.0004
  20655513.9304    -682326.66849   -529152.29347                  20655511.6374
        51.0004         39.2504
  20786042.0704   -1222578.85249   -946729.89148                  20786038.8954
        52.0004         41.2504
 04  6 30 16 48  0.0000000  0  8G 3G 6G 9G14G15G18G21G22
  22391217.3674   -1782227.44149  -1374837.84447                  22391216.5234
        46.2504         32.5004
  24008385.4224     510822.94149    383509.43446                  24008388.3054
        39.7504         22.2504
  23654291.8914   -1795677.77049  -1378249.85247                  23654292.1994
        45.0004         25.7504
  22516502.2504   -2464293.41049  -1900654.56247                  22516500.7854
        46.7504         30.5004
  20745362.3054   -1796610.28549  -1386842.60947                  20745361.2074
        50.2504         38.7504
  20802180.8594    -579140.64849   -449790.91448                  20802178.6294
        51.0004         40.0004
  20652547.1334    -697916.66449   -541300.33648                  20652544.9654
        51.0004         39.5004
  20780552.9304   -1251426.95349   -969208.93448                  20780549.0204
        51.7504         40.7504
 04  6 30 16 48 10.0000000  0  8G 3G 6G 9G14G15G18G21G22
  22383434.6724   -1823124.89149  -1406705.98847                  22383434.0944
        47.5004         32.5004
  24010754.8444     523275.20749    393212.47346                  24010758.1454
        39.7504         22.2504
  23646224.2814   -1838073.39149  -1411285.38347                  23646224.7544
        44.0004         27.0004
  22505538.9064   -2521904.69549  -1945546.45347                  22505537.8594
        46.7504         31.5004
  20737385.2584   -1838531.27049  -1419508.30947                  20737384.2664
        51.2504         39.2504
  20799700.0004    -592177.73049   -459949.68748                  20799697.9654
        51.5004         39.5004
  20649588.9844    -713460.59449   -553412.50048                  20649587.0474
        51.0004         39.5004
  20775069.9924   -1280236.75849   -991658.12948                  20775066.8874
        52.0004         40.7504
 04  6 30 16 48 20.0000000  0  8G 3G 6G 9G14G15G18G21G22
  22375663.9144   -1863960.46549  -1438525.90647                  22375663.5784
        48.5004         32.0004
  24013127.1954     535740.80149    402925.87146                  24013130.5354
        39.7504         22.2504
  23638165.4454   -1880421.57849  -1444283.95346                  23638166.1724
        44.5004         25.5004
  22494583.0164   -2579479.20349  -1990409.69947                  22494581.8134
        47.0004         31.0004
  20729414.0944   -1880421.05549  -1452149.69947                  20729412.6294
        51.0004         39.0004
  20797224.9924    -605184.48849   -470084.82447                  20797222.6484
        50.5004         38.2504
  20646640.1644    -728958.90649   -565489.10247                  20646637.8014
        51.0004         39.0004
  20769594.9304   -1309008.69149  -1014077.81248                  20769591.8094
        52.0004         40.0004
 04  6 30 16 48 30.0000000  0  8G 3G 6G 9G14G15G18G21G22
  22367904.7034   -1904734.74249  -1470298.08247                  22367903.9924
        48.0004         32.2504
  24015500.9224     548218.69949    412648.83246                  24015504.5594
        39.2504         22.2504
  23630116.1954   -1922722.70349  -1477245.85547                  23630116.4064
        45.5004         27.0004
  22483633.7734   -2637017.41049  -2035244.65647                  22483632.7464
        47.7504         32.2504
  20721448.3914   -1922280.08649  -1484767.13347                  20721447.7234
        51.2504         39.0004
  20794755.2584    -618161.45349   -480196.75447                  20794752.9614
        51.0004         39.2504
  20643699.4694    -744412.09849   -577530.55948                  20643697.3674
        51.5004         39.7504
  20764126.9924   -1337743.41049  -1036468.50848                  20764123.6914
        52.0004         40.7504
 04  6 30 16 48 40.0000000  0  8G 3G 6G 9G14G15G18G21G22
  22360157.1954   -1945447.50449  -1502022.30147                  22360156.7704
        47.0004         31.5004
  24017877.7894     560709.50849    422381.89146                  24017881.6954
        39.2504         21.5004
  23622075.0554   -1964976.57449  -1510170.94147                  23622076.0234
        45.0004         27.2504
  22472691.2734   -2694519.10249  -2080051.15247                  22472690.6954
        47.5004         32.2504
  20713488.8204   -1964108.23049  -1517360.48848                  20713488.0164
        51.5004         39.7504
  20792291.4534    -631108.61349   -490285.44947                  20792289.4064
        51.0004         39.0004
  20640767.2894    -759819.96149   -589536.69147                  20640765.3164
        51.5004         39.2504
  20758665.9614   -1366440.85949  -1058830.15248                  20758663.0084
        51.5004         40.7504
 04  6 30 16 48 50.0000000  0  8G 3G 6G 9G14G15G18G21G22
  22352421.2274   -1986098.71549  -1533698.56647                  22352421.0204
        47.7504         32.2504
  24020258.3834     573212.92249    432124.73846                  24020261.0204
        38.5004         21.5004
  23614043.9144   -2007183.12949  -1543059.14847                  23614044.4144
        45.0004         26.5004
  22461756.2814   -2751984.23849  -2124829.17647                  22461755.0784
        48.0004         32.2504
  20705535.1414   -2005905.44149  -1549929.74248                  20705534.3594
        51.5004         39.5004
  20789833.4694    -644026.00449   -500350.95348                  20789831.2234
        51.2504         39.7504
  20637843.8984    -775182.55549   -601507.54748                  20637841.8834
        51.7504         40.2504
  20753212.0944   -1395101.07049  -1081162.79348                  20753208.9694
        51.5004         41.0004
 04  6 30 16 49  0.0000000  0  8G 3G 6G 9G14G15G18G21G22
  22344698.1334   -2026688.59849  -1565327.04347                  22344697.2034
        48.0004         31.7504
  24022639.4144     585728.38349    441876.98046                  24022642.3444
        38.7504         21.5004
  23606021.1954   -2049342.52749  -1575910.60247                  23606021.8754
        45.0004         27.0004
  22450827.8754   -2809413.01249  -2169578.85947                  22450826.8134
        48.0004         32.2504
  20697587.1484   -2047671.92249  -1582475.05547                  20697586.3484
        51.2504         39.2504
  20787381.0314    -656914.01249   -510393.57047                  20787379.0274
        51.0004         39.2504
  20634929.2974    -790500.03549   -613443.25448                  20634926.7274
        51.5004         40.5004
  20747765.3364   -1423724.37949  -1103466.67248                  20747761.8484
        52.5004         41.0004
 04  6 30 16 49 10.0000000  0  8G 3G 6G 9G14G15G18G21G22
  22336985.2274   -2067217.69549  -1596908.15247                  22336984.6254
        47.7504         32.0004
  24025023.1484     598255.50049    451638.28146                  24025026.7734
        38.5004         21.5004
  23598006.7894   -2091455.29749  -1608725.72347                  23598007.6604
        44.0004         27.2504
  22439906.3524   -2866805.90249  -2214300.57847                  22439905.1994
        47.2504         32.2504
  20689645.3364   -2089408.22349  -1614996.84048                  20689644.2814
        51.7504         39.7504
  20784933.7814    -669773.21149   -520413.72347                  20784931.5204
        51.5004         38.7504
  20632023.0394    -805773.07049   -625344.32047                  20632020.2854
        51.2504         39.2504
  20742325.1644   -1452311.44149  -1125742.29348                  20742321.7624
        52.0004         40.7504
 04  6 30 16 49 20.0000000  0  8G 3G 6G 9G14G15G18G21G22
  22329284.8754   -2107685.12149  -1628441.21947                  22329283.9844
        46.2504         32.2504
  24027410.1334     610794.50449    461408.92646                  24027412.8634
        38.0004         20.2504
  23590002.0314   -2133520.55149  -1641503.82847                  23590002.9384
        44.7504         27.5004
  22428991.5784   -2924162.09849  -2258993.70347                  22428991.2114
        47.7504         32.5004
  20681708.4924   -2131113.55949  -1647494.49648                  20681707.6764
        50.7504         39.7504
  20782492.2814    -682602.96149   -530410.93447                  20782490.3484
        50.7504         38.7504
  20629125.1334    -821000.94949   -637210.19548                  20629122.8554
        52.0004         39.5004
  20736892.3674   -1480861.56249  -1147989.14548                  20736889.3794
        51.5004         41.0004
 04  6 30 16 49 30.0000000  0  8G 3G 6G 9G14G15G18G21G22
  22321595.3364   -2148092.92649  -1659927.81247                  22321594.1804
        47.2504         30.7504
  24029798.3134     623343.61749    471187.40646                  24029800.5744
        38.5004         20.0004
  23582006.0084   -2175540.15249  -1674246.35547                  23582006.6374
        44.0004         25.7504
  22418083.8364   -2981483.50449  -2303659.72347                  22418083.1844
        47.7504         32.0004
  20673778.1804   -2172789.83649  -1679969.52348                  20673777.0314
        51.5004         39.5004
  20780056.2664    -695405.30549   -540386.78547                  20780054.1484
        51.0004         38.5004
  20626235.4614    -836185.57049   -649042.37548                  20626233.1914
        51.2504         39.5004
  20731466.0394   -1509376.71949  -1170208.72748                  20731462.8284
        51.2504         40.7504
 04  6 30 16 49 40.0000000  0  8G 3G 6G 9G14G15G18G21G22
  22313916.8054   -2188439.67649  -1691366.84047                  22313916.0664
        46.5004         31.5004
  24032187.4454     635903.83649    480974.53546                  24032190.8594
        38.2504         20.0004
  23574018.8914   -2217512.68049  -1706952.20747                  23574019.9064
        45.0004         27.5004
  22407183.0004   -3038768.71149  -2348297.53947                  22407182.3554
        46.5004         32.2504
  20665853.2274   -2214435.64149  -1712420.80148                  20665852.3444
        51.2504         40.5004
  20777625.5084    -708178.91049   -550340.25047                  20777623.7114
        51.0004         39.2504
  20623354.3834    -851325.50449   -660839.72748                  20623352.4064
        51.7504         40.0004
  20726046.7344   -1537855.57049  -1192400.05148                  20726043.7194
        51.7504         40.7504
 04  6 30 16 49 50.0000000  0  7G 3G 9G14G15G18G21G22
  22306251.3284   -2228724.83249  -1722757.85947                  22306250.2154
        46.5004         31.7504
  23566041.3284   -2259437.52749  -1739620.89847                  23566041.8524
        45.5004         27.0004
  22396288.6564   -3096017.12549  -2392906.68447                  22396288.1804
        47.2504         31.5004
  20657934.2424   -2256050.38749  -1744847.88348                  20657933.0904
        51.0004         39.7504
  20775200.5314    -720923.30549   -560270.95747                  20775198.1764
        51.0004         39.0004
  20620482.2814    -866420.26249   -672601.88348                  20620479.8714
        52.0004         39.5004
  20720634.2974   -1566297.62149  -1214562.68448                  20720631.1024
        51.5004         40.7504
 04  6 30 16 50  0.0000000  0  7G 3G 9G14G15G18G21G22
  22298596.6564   -2268949.55549  -1754101.80147                  22298596.3714
        48.0004         31.7504
  23558072.3364   -2301315.81649  -1772253.31647                  23558072.6644
        45.5004         28.2504
  22385401.6254   -3153229.80949  -2437487.98047                  22385401.0274
        46.5004         32.5004
  20650020.7194   -2297635.29749  -1777251.70748                  20650019.8954
        51.2504         39.7504
  20772780.3674    -733639.75049   -570179.86347                  20772778.1604
        51.5004         39.2504
  20617618.2664    -881471.17649   -684329.87948                  20617615.9494
        51.2504         39.7504
  20715228.8754   -1594704.21949  -1236697.69548                  20715225.7034
        51.7504         41.0004
 04  6 30 16 50  9.9990000  0  7G 3G 9G14G15G18G21G22
  22290955.2454   -2309107.85949  -1785393.98047                  22290953.9604
        47.7504         32.2504
  23550113.0264   -2343141.41449  -1804844.67247                  23550113.4954
        44.5004         27.2504
  22374522.4094   -3210399.15249  -2482035.50447                  22374521.9374
        46.5004         32.2504
  20642114.2534   -2339184.30149  -1809627.55547                  20642113.3154
        51.7504         39.0004
  20770366.4564    -746325.30549   -580064.71947                  20770364.2494
        51.0004         39.0004
  20614762.7844    -896474.77349   -696020.99648                  20614760.7924
        51.5004         40.5004
  20709830.7144   -1623070.62949  -1258801.39148                  20709827.3904
        50.7504         41.0004
 04  6 30 16 50 19.9990000  0  7G 3G 9G14G15G18G21G22
  22283324.0584   -2349209.80149  -1816642.25047                  22283323.2924
        48.7504         31.5004
  23542161.4874   -2384924.54749  -1837402.93747                  23542162.1634
        44.5004         27.0004
  22363649.2374   -3267538.53549  -2526559.67647                  22363648.7374
        47.0004         32.0004
  20634212.4804   -2380707.61349  -1841983.37947                  20634211.5264
        51.2504         39.2504
  20767957.4564    -758984.46949   -589929.00847                  20767955.3394
        51.5004         38.7504
  20611915.9644    -911436.03149   -707679.12148                  20611913.7924
        51.2504         40.0004
  20704438.9804   -1651404.65649  -1280879.85548                  20704435.8274
        50.7504         40.5004
 04  6 30 16 50 29.9990000  0  7G 3G 9G14G15G18G21G22
  22275704.1364   -2389252.05949  -1847843.99647                  22275703.1834
        48.2504         32.2504
  23534219.1054   -2426661.73449  -1869925.41046                  23534219.2574
        45.0004         25.5004
  22352783.1284   -3324642.83249  -2571056.52047                  22352781.9214
        47.0004         31.7504
  20626316.5584   -2422201.77349  -1874316.48447                  20626315.6754
        51.2504         39.0004
  20765553.8704    -771616.73049   -599772.32047                  20765551.8124
        51.5004         38.7504
  20609077.1514    -926354.12549   -719303.60948                  20609074.8154
        51.7504         39.5004
  20699053.6364   -1679704.27049  -1302931.49648                  20699050.7374
        51.5004         40.5004
 04  6 30 16 50 39.9990000  0  7G 3G 9G14G15G18G21G22
  22268095.6594   -2429234.94949  -1878999.48447                  22268094.8514
        47.5004         31.7504
  23526285.8474   -2468353.14849  -1902412.20747                  23526285.7374
        44.0004         27.0004
  22341922.8394   -3381712.34449  -2615526.24647                  22341922.1364
        47.0004         32.0004
  20618425.8234   -2463667.08249  -1906627.10947                  20618424.8784
        51.7504         39.2504
  20763154.9874    -784222.59049   -609595.07047                  20763152.6164
        51.0004         39.0004
  20606246.5264    -941229.46149   -730894.78947                  20606243.7574
        51.5004         39.2504
  20693674.8084   -1707969.82049  -1324956.59448                  20693671.6444
        51.5004         40.2504
 04  6 30 16 50 49.9990000  0  7G 3G 9G14G15G18G21G22
  22260499.0504   -2469155.62549  -1910106.50847                  22260498.2694
        47.0004         31.7504
  23518360.7304   -2509995.92249  -1934861.10547                  23518361.4254
        44.5004         26.0004
  22331069.9874   -3438744.19549  -2659966.64147                  22331069.0694
        46.7504         32.7504
  20610541.3944   -2505100.71549  -1938913.05547                  20610540.2224
        50.7504         39.2504
  20760761.6594    -796799.22349   -619395.05547                  20760759.4724
        51.2504         39.2504
  20603424.1054    -956059.18749   -742450.43047                  20603422.0264
        51.2504         39.0004
  20688303.2144   -1736198.57449  -1346953.03548                  20688299.8974
        51.7504         40.5004
 04  6 30 16 50 59.9990000  0  7G 3G 9G14G15G18G21G22
  22252913.9174   -2509015.25849  -1941165.96947                  22252913.0114
        48.2504         32.5004
  23510446.0734   -2551591.21949  -1967273.01247                  23510446.4994
        45.2504         26.7504
  22320223.8394   -3495739.48449  -2704378.53547                  22320223.2964
        46.0004         32.7504
  20602662.7454   -2546503.77349  -1971175.18047                  20602661.5344
        51.2504         39.2504
  20758373.8394    -809347.94549   -629173.28147                  20758371.5074
        50.7504         39.0004
  20600610.7534    -970844.56249   -753971.50447                  20600608.4374
        51.2504         39.2504
  20682938.3474   -1764391.77749  -1368921.75848                  20682934.9484
        51.7504         40.5004
 04  6 30 16 51  9.9990000  0  7G 3G 9G14G15G18G21G22
  22245340.8004   -2548811.46149  -1972175.99247                  22245339.9604
        47.7504         31.5004
  23502540.3084   -2593136.59449  -1999646.01646                  23502540.3234
        45.5004         25.5004
  22309385.6754   -3552695.89849  -2748760.14547                  22309384.7614
        46.0004         33.0004
  20594790.2224   -2587873.94949  -2003411.68447                  20594788.9134
        51.5004         39.2504
  20755991.7224    -821866.56649   -638928.06247                  20755989.4874
        51.0004         38.7504
  20597806.2924    -985583.25849   -765456.21148                  20597803.8704
        51.2504         39.5004
  20677580.3154   -1792547.21549  -1390861.07048                  20677577.0774
        51.2504         40.2504
 04  6 30 16 51 19.9990000  0  7G 3G 9G14G15G18G21G22
  22237779.7304   -2588546.39149  -2003138.28547                  22237778.5814
        47.5004         32.5004
  23494643.4404   -2634634.11749  -2031981.73047                  23494644.0584
        44.7504         27.0004
  22298554.1364   -3609615.46949  -2793113.03547                  22298553.3154
        45.7504         33.2504
  20586923.5654   -2629213.34449  -2035624.20348                  20586922.4254
        51.2504         39.7504
  20753614.6834    -834357.21949   -648661.03148                  20753612.9254
        51.2504         39.5004
  20595010.0424   -1000277.44549   -776906.23848                  20595007.8944
        51.5004         39.7504
  20672229.4954   -1820667.05549  -1412772.63348                  20672226.3824
        51.7504         40.5004
 04  6 30 16 51 29.9990000  0  7G 3G 9G14G15G18G21G22
  22230229.8004   -2628221.35549  -2034053.83647                  22230228.8944
        47.7504         32.7504
  23486755.7224   -2676085.04349  -2064281.12547                  23486756.0224
        44.2504         26.7504
  22287729.4174   -3666499.53149  -2837438.26247                  22287728.8394
        45.0004         32.5004
  20579062.5504   -2670523.32849  -2067813.80547                  20579061.3474
        51.2504         39.0004
  20751243.0734    -846821.33649   -658373.34447                  20751240.6474
        51.2504         39.0004
  20592222.2534   -1014928.47749   -788322.62948                  20592219.8194
        51.2504         40.2504
  20666885.0034   -1848752.68749  -1434657.53948                  20666881.4684
        51.7504         40.5004
 04  6 30 16 51 39.9990000  0  7G 3G 9G14G15G18G21G22
  22222691.7694   -2667834.69149  -2064921.35547                  22222690.9174
        47.5004         31.7504
  23478876.3554   -2717487.64549  -2096542.87946                  23478876.9994
        44.7504         25.5004
  22276911.8944   -3723346.43749  -2881734.53547                  22276911.1364
        46.0004         31.7504
  20571207.3474   -2711802.21949  -2099979.15248                  20571206.2724
        51.7504         39.5004
  20748876.4334    -859257.44149   -668063.80947                  20748874.6084
        51.2504         39.0004
  20589442.5194   -1029534.68749   -799704.09448                  20589440.6124
        51.5004         40.0004
  20661547.5894   -1876802.58649  -1456514.60248                  20661544.4054
        51.5004         40.2504
 04  6 30 16 51 49.9990000  0  7G 3G 9G14G15G18G21G22
  22215164.3864   -2707387.77049  -2095741.93047                  22215163.9644
        47.2504         31.5004
  23471007.1834   -2758843.25049  -2128768.00447                  23471007.2454
        44.5004         26.5004
  22266101.4014   -3780157.41049  -2926002.80547                  22266100.3274
        45.2504         32.2504
  20563358.0344   -2753051.37949  -2132121.36348                  20563357.0384
        51.5004         39.7504
  20746514.7534    -871666.94949   -677733.55547                  20746513.0224
        51.2504         39.0004
  20586671.4174   -1044097.50449   -811051.74248                  20586669.2884
        52.0004         39.5004
  20656216.0194   -1904818.11749  -1478344.88748                  20656212.5974
        51.2504         40.7504
 04  6 30 16 51 59.9990000  0  7G 3G 9G14G15G18G21G22
  22207649.4564   -2746881.16449  -2126515.99647                  22207649.0694
        47.5004         30.7504
  23463145.9874   -2800152.37149  -2160956.91446                  23463145.7804
        44.5004         24.7504
  22255297.1364   -3836933.03549  -2970243.53947                  22255296.1474
        45.5004         32.0004
  20555514.1124   -2794271.33249  -2164240.80947                  20555513.3584
        51.2504         39.2504
  20744158.5264    -884050.43749   -687383.02747                  20744156.4444
        51.0004         38.2504
  20583908.1284   -1058617.43749   -822365.98847                  20583905.8864
        51.2504         39.0004
  20650891.1364   -1932799.96949  -1500148.92648                  20650887.9334
        51.5004         40.2504
 04  6 30 16 52  9.9990000  0  7G 3G 9G14G15G18G21G22
  22200145.3864   -2786313.85249  -2157242.77747                  22200145.2184
        47.5004         31.0004
  23455294.4484   -2841413.88749  -2193108.71947                  23455294.1754
        45.5004         26.7504
  22244500.3624   -3893672.17649  -3014455.84847                  22244498.9484
        45.0004         31.7504
  20547676.0194   -2835461.00849  -2196336.65248                  20547675.4134
        51.7504         40.0004
  20741806.8234    -896407.03949   -697011.55147                  20741804.8864
        50.7504         39.0004
  20581153.5654   -1073093.52749   -833646.07048                  20581150.7884
        50.7504         40.2504
  20645573.1204   -1960747.23049  -1521926.01248                  20645569.8314
        51.5004         40.5004
 04  6 30 16 52 19.9990000  0  7G 3G 9G14G15G18G21G22
  22192653.1904   -2825687.04349  -2187923.17647                  22192652.2764
        47.0004         30.7504
  23447451.6284   -2882629.00849  -2225224.39847                  23447451.8624
        44.7504         27.0004
  22233710.0034   -3950375.98449  -3058640.63747                  22233708.4914
        46.0004         31.7504
  20539843.4804   -2876621.61349  -2228409.85548                  20539842.7804
        51.5004         40.0004
  20739460.2224    -908738.04749   -706620.12947                  20739458.4874
        50.5004         39.0004
  20578406.9334   -1087526.98449   -844892.91848                  20578404.6204
        51.7504         40.0004
  20640261.1904   -1988661.18049  -1543677.14548                  20640258.0224
        50.7504         40.2504
 04  6 30 16 52 29.9990000  0  7G 3G 9G14G15G18G21G22
  22185172.0584   -2864999.66449  -2218556.39147                  22185171.6284
        47.2504         31.0004
  23439617.3084   -2923796.66849  -2257303.05947                  23439618.0584
        44.7504         27.5004
  22222926.1054   -4007043.55549  -3102797.17247                  22222925.1514
        46.5004         32.2504
  20532016.2454   -2917752.17649  -2260459.64548                  20532015.4254
        51.7504         40.2504
  20737118.6674    -921042.61349   -716208.10947                  20737116.9404
        51.2504         39.0004
  20575668.6364   -1101916.95349   -856105.88748                  20575666.3584
        51.5004         40.7504
  20634955.8084   -2016540.96149  -1565401.64548                  20634952.6124
        51.0004         41.2504
 04  6 30 16 52 39.9990000  0  7G 3G 9G14G15G18G21G22
  22177702.7454   -2904252.43749  -2249142.96547                  22177701.8704
        47.7504         32.0004
  23431792.6514   -2964917.44949  -2289345.23047                  23431793.2654
        45.0004         27.2504
  22212149.4094   -4063675.41449  -3146925.89547                  22212148.0074
        46.7504         32.0004
  20524195.1054   -2958853.31249  -2292486.50448                  20524194.2534
        51.5004         40.2504
  20734782.2764    -933321.43049   -725776.01647                  20734780.4374
        51.0004         39.0004
  20572938.4724   -1116264.05949   -867285.45748                  20572936.0624
        51.0004         40.0004
  20629656.8944   -2044387.30949  -1587100.10248                  20629653.5154
        51.2504         40.7504
 04  6 30 16 52 49.9990000  0  7G 3G 9G14G15G18G21G22
  22170244.8784   -2943442.87949  -2279680.96547                  22170244.2844
        47.5004         31.5004
  23423977.0194   -3005988.85949  -2321348.91447                  23423977.4334
        45.0004         28.2504
  22201379.7064   -4120269.05549  -3191024.81647                  22201378.9014
        47.0004         32.7504
  20516380.0894   -2999922.54349  -2324488.49248                  20516378.8744
        51.5004         39.5004
  20732451.0264    -945572.18049   -735322.05147                  20732448.8584
        50.5004         38.5004
  20570216.9724   -1130565.84849   -878429.71147                  20570214.4564
        51.5004         39.2504
  20624364.6834   -2072197.86749  -1608770.66848                  20624361.6364
        51.0004         40.7504
 04  6 30 16 52 59.9990000  0  7G 3G 9G14G15G18G21G22
  22162798.9564   -2982572.21949  -2310171.36347                  22162798.1324
        48.0004         31.2504
  23416170.0344   -3047012.06249  -2353315.02047                  23416170.2534
        45.0004         27.5004
  22190617.3004   -4176825.67249  -3235094.89147                  22190616.3354
        47.0004         31.7504
  20508570.6284   -3040961.04749  -2356466.53948                  20508569.2654
        51.0004         39.7504
  20730124.8154    -957796.13749   -744847.21147                  20730122.7104
        51.0004         38.5004
  20567503.6834   -1144823.50049   -889539.57048                  20567501.6164
        51.2504         39.5004
  20619079.0264   -2099973.89849  -1630414.32448                  20619076.1124
        50.7504         41.0004
 04  6 30 16 53  9.9990000  0  7G 3G 9G14G15G18G21G22
  22155364.3624   -3021640.38349  -2340614.08647                  22155363.5264
        47.5004         30.7504
  23408373.2144   -3087986.84849  -2385243.41446                  23408373.5224
        44.5004         25.0004
  22179862.0654   -4233345.21949  -3279136.08647                  22179860.9604
        47.0004         31.2504
  20500766.9484   -3081968.74649  -2388420.59848                  20500765.7964
        52.0004         39.5004
  20727803.6984    -969993.37549   -754351.55547                  20727801.8194
        51.2504         38.0004
  20564799.1594   -1159037.02349   -900615.04747                  20564796.7804
        51.5004         39.2504
  20613799.9484   -2127715.32049  -1652031.01648                  20613797.1444
        51.5004         40.0004
 04  6 30 16 53 19.9990000  0  7G 3G 9G14G15G18G21G22
  22147941.0734   -3060648.98049  -2371010.39847                  22147940.7334
        47.0004         31.2504
  23400584.3314   -3128914.82449  -2417135.34847                  23400584.5974
        45.5004         26.0004
  22169113.4804   -4289829.14549  -3323149.53547                  22169112.3584
        47.0004         31.5004
  20492969.1514   -3122947.23449  -2420351.89548                  20492968.0934
        51.7504         40.0004
  20725487.6754    -982165.53149   -763836.36347                  20725485.2764
        51.2504         39.2504
  20562102.3624   -1173208.07049   -911657.43447                  20562099.9404
        51.7504         38.7504
  20608527.2614   -2155423.87149  -1673622.09848                  20608524.4604
        50.7504         40.5004
 04  6 30 16 53 29.9990000  0  7G 3G 9G14G15G18G21G22
  22140529.7144   -3099598.02749  -2401360.30147                  22140528.9094
        47.0004         31.7504
  23392804.9484   -3169795.89149  -2448990.71547                  23392804.9094
        43.5004         26.2504
  22158371.6364   -4346277.51649  -3367135.26647                  22158370.7104
        46.5004         31.7504
  20485176.7064   -3163896.50849  -2452260.41848                  20485175.9374
        51.2504         39.7504
  20723176.3314    -994312.73049   -773301.71547                  20723173.8124
        50.7504         38.5004
  20559413.8154   -1187336.65649   -922666.71947                  20559411.3864
        51.0004         39.0004
  20603260.7454   -2183099.66849  -1695187.65248                  20603257.6364
        50.5004         40.5004
 04  6 30 16 53 39.9990000  0  7G 3G 9G14G15G18G21G22
  22133129.3154   -3138486.66849  -2431663.14547                  22133128.6404
        48.0004         32.0004
  23385034.9254   -3210629.21949  -2480808.88747                  23385034.7844
        43.7504         26.0004
  22147636.7614   -4402689.39549  -3411092.55947                  22147635.6054
        47.2504         31.7504
  20477389.8554   -3204815.71549  -2484145.52048                  20477389.2184
        51.7504         40.2504
  20720869.5264   -1006434.21949   -782747.05147                  20720867.4804
        51.5004         38.7504
  20556733.7064   -1201422.00849   -933642.32847                  20556730.8584
        52.0004         39.2504
  20598000.5894   -2210742.04349  -1716727.16848                  20597997.5424
        50.7504         40.7504
 04  6 30 16 53 49.9990000  0  7G 3G 9G14G15G18G21G22
  22125740.5894   -3177316.09849  -2461919.84447                  22125739.5894
        47.5004         31.5004
  23377273.1364   -3251415.85549  -2512590.68447                  23377272.6594
        43.7504         26.5004
  22136909.3624   -4459065.90649  -3455022.30147                  22136907.6124
        47.7504         32.0004
  20469609.2064   -3245706.02349  -2516008.09848                  20469608.0974
        51.5004         40.0004
  20718567.5114   -1018531.30149   -792173.34047                  20718565.2304
        51.5004         39.0004
  20554061.3084   -1215465.30549   -944585.16047                  20554058.3824
        51.5004         39.2504
  20592746.6364   -2238352.14549  -1738241.52748                  20592743.5464
        51.2504         41.0004
 04  6 30 16 53 59.9990000  0  7G 3G 9G14G15G18G21G22
  22118362.6054   -3216085.52049  -2492129.78547                  22118362.2804
        46.7504         31.7504
  23369520.8154   -3292155.07849  -2544335.51246                  23369520.7024
        43.5004         25.0004
  22126187.7224   -4515406.30149  -3498923.88747                  22126186.4254
        47.5004         31.7504
  20461833.2614   -3286566.65649  -2547847.54748                  20461832.5624
        51.7504         39.5004
  20716270.1754   -1030603.23049   -801580.04347                  20716268.0194
        51.0004         38.2504
  20551396.9174   -1229465.84049   -955494.66848                  20551393.9914
        52.0004         39.5004
  20587498.9174   -2265929.33249  -1759730.24648                  20587495.6124
        51.0004         40.5004
 04  6 30 16 54  9.9990000  0  7G 3G 9G14G15G18G21G22
  22110996.3704   -3254794.12549  -2522292.32447                  22110996.2964
        46.2504         31.2504
  23361778.1054   -3332845.92249  -2576042.64847                  23361777.8004
        44.0004         26.0004
  22115473.4874   -4571709.67649  -3542796.63347                  22115472.4134
        46.7504         31.7504
  20454063.6904   -3327396.74249  -2579663.18747                  20454062.8824
        51.2504         39.0004
  20713978.0424   -1042649.25849   -810966.56247                  20713975.7144
        51.5004         38.2504
  20548741.0424   -1243422.73449   -966370.17248                  20548738.6634
        51.5004         39.5004
  20582257.5034   -2293472.85249  -1781192.72748                  20582254.5384
        51.0004         40.7504
 04  6 30 16 54 19.9990000  0  7G 3G 9G14G15G18G21G22
  22103641.8784   -3293443.48049  -2552408.70747                  22103641.3514
        47.5004         31.0004
  23354043.7614   -3373490.09049  -2607713.43047                  23354043.6594
        44.0004         26.7504
  22104766.1054   -4627977.63349  -3586641.77047                  22104764.7454
        47.2504         31.2504
  20446299.3554   -3368197.92249  -2611456.30548                  20446298.0344
        50.5004         39.5004
  20711690.3554   -1054671.22349   -820334.33647                  20711688.0654
        50.7504         38.2504
  20546093.2694   -1257337.68749   -977212.98847                  20546090.7574
        51.5004         39.0004
  20577022.2454   -2320984.41849  -1802630.30548                  20577018.8584
        51.2504         40.5004
 04  6 30 16 54 29.9990000  0  7G 3G 9G14G15G18G21G22
  22096298.3864   -3332033.98049  -2582479.22747                  22096297.8044
        46.7504         31.7504
  23346317.9804   -3414087.84449  -2639348.01647                  23346317.8474
        44.5004         27.0004
  22094065.1444   -4684210.55549  -3630459.62947                  22094063.6554
        47.7504         31.0004
  20438540.6834   -3408970.60249  -2643227.22747                  20438539.6204
        51.0004         38.2504
  20709406.9644   -1066669.51249   -829683.65247                  20709405.0264
        50.2504         38.5004
  20543452.9404   -1271211.07049   -988023.42647                  20543450.5934
        51.5004         38.5004
  20571792.7924   -2348464.48049  -1824043.34448                  20571789.7614
        50.7504         40.5004
 04  6 30 16 54 39.9990000  0  7G 3G 9G14G15G18G21G22
  22088966.4644   -3370564.18049  -2612502.76647                  22088965.6244
        47.5004         32.0004
  23338601.3474   -3454637.58649  -2670945.20747                  23338601.9834
        44.0004         26.5004
  22083371.4564   -4740406.88749  -3674248.97747                  22083370.1404
        46.5004         32.2504
  20430787.6364   -3449713.25049  -2674974.74648                  20430786.5034
        51.5004         39.7504
  20707128.9804   -1078642.69549   -839013.40647                  20707126.5854
        50.7504         39.2504
  20540821.3704   -1285041.41049   -998800.31248                  20540818.8744
        51.2504         39.5004
  20566569.9254   -2375911.70749  -1845430.79748                  20566566.9764
        51.0004         41.0004
 04  6 30 16 54 49.9990000  0  7G 3G 9G14G15G18G21G22
  22081645.6674   -3409034.76649  -2642479.85547                  22081645.1444
        47.0004         31.7504
  23330894.4874   -3495139.95349  -2702505.48847                  23330894.6874
        44.0004         27.7504
  22072684.7844   -4796567.27049  -3718010.30947                  22072682.9174
        46.0004         31.7504
  20423040.2144   -3490426.53949  -2706699.39548                  20423038.7304
        51.2504         39.7504
  20704855.0114   -1090591.70349   -848324.33247                  20704852.7454
        51.0004         39.0004
  20538197.4254   -1298829.53949  -1009544.32047                  20538195.1754
        51.0004         39.2504
  20561352.8944   -2403326.87949  -1866793.25848                  20561349.7184
        51.0004         41.0004
 04  6 30 16 54 59.9990000  0  7G 3G 9G14G15G18G21G22
  22074336.2064   -3447446.32849  -2672410.94147                  22074335.8234
        47.2504         31.5004
  23323195.8784   -3535595.47749  -2734029.26247                  23323196.2964
        44.0004         27.7504
  22062004.3004   -4852692.14849  -3761743.96547                  22062003.1754
        46.0004         32.0004
  20415298.1514   -3531111.00449  -2738401.57048                  20415296.8004
        51.2504         40.0004
  20702585.6834   -1102517.15249   -857616.89847                  20702583.3514
        51.2504         39.0004
  20535581.4804   -1312575.98849  -1020255.84048                  20535578.8974
        51.5004         40.0004
  20556142.0424   -2430710.50049  -1888131.15648                  20556139.0114
        51.2504         41.2504
 04  6 30 16 55  9.9990000  0  7G 3G 9G14G15G18G21G22
  22067037.7614   -3485799.96549  -2702296.89147                  22067037.5974
        47.0004         31.5004
  23315505.6594   -3576005.21949  -2765517.37947                  23315506.2064
        43.5004         27.0004
  22051330.5504   -4908782.73849  -3805450.91047                  22051329.2264
        46.5004         33.0004
  20407561.5344   -3571767.80549  -2770082.19948                  20407560.5854
        52.0004         40.2504
  20700320.4334   -1114420.25849   -866892.04747                  20700318.2964
        50.2504         39.0004
  20532973.3154   -1326281.92249  -1030935.79748                  20532970.9014
        51.0004         40.2504
  20550936.8234   -2458064.00049  -1909445.56248                  20550933.6364
        51.2504         41.2504
 04  6 30 16 55 19.9990000  0  7G 3G 9G14G15G18G21G22
  22059750.4724   -3524095.12549  -2732137.27347                  22059749.6084
        47.5004         31.5004
  23307825.8154   -3616368.57049  -2796969.31647                  23307825.2574
        43.5004         27.0004
  22040663.6444   -4964838.43449  -3849130.66447                  22040662.4404
        47.0004         32.7504
  20399830.0734   -3612396.33249  -2801740.78148                  20399829.0194
        51.5004         39.7504
  20698059.7534   -1126300.56649   -876149.43447                  20698057.5154
        50.2504         39.0004
  20530373.3234   -1339946.85949  -1041583.80148                  20530370.8124
        51.7504         39.5004
  20545737.4874   -2485386.78949  -1930736.04348                  20545734.3154
        50.7504         40.5004
 04  6 30 16 55 29.9990000  0  7G 3G 9G14G15G18G21G22
  22052474.3314   -3562330.21949  -2761930.85247                  22052474.1204
        47.0004         31.7504
  23300153.3314   -3656683.88349  -2828383.83246                  23300153.5544
        43.0004         25.5004
  22030003.4404   -5020857.53549  -3892781.88747                  22030002.1674
        46.7504         32.5004
  20392104.2764   -3652994.93049  -2833376.05148                  20392103.4444
        51.0004         40.0004
  20695803.6444   -1138156.48449   -885387.82047                  20695801.5734
        51.0004         39.0004
  20527781.1204   -1353569.15649  -1052198.57848                  20527778.5774
        51.7504         40.0004
  20540544.4254   -2512677.35549  -1952001.41848                  20540541.2844
        51.5004         40.7504
 04  6 30 16 55 39.9990000  0  7G 3G 9G14G15G18G21G22
  22045209.5814   -3600506.19949  -2791678.36747                  22045209.1634
        47.0004         31.2504
  23292490.5344   -3696952.06249  -2859761.62946                  23292490.8084
        43.5004         25.2504
  22019350.4404   -5076840.97349  -3936405.32847                  22019348.9644
        47.5004         31.7504
  20384384.0974   -3693564.62549  -2864988.79747                  20384383.3394
        51.0004         39.0004
  20693552.1124   -1149989.12549   -894608.05947                  20693549.9914
        51.2504         38.0004
  20525196.6904   -1367149.86349  -1062780.95347                  20525194.3624
        51.5004         38.7504
  20535356.9564   -2539936.74649  -1973242.50448                  20535353.8394
        50.5004         40.0004
 04  6 30 16 55 49.9990000  0  7G 3G 9G14G15G18G21G22
  22037956.2224   -3638622.03549  -2821379.02347                  22037956.1124
        46.5004         32.2504
  23284837.2144   -3737172.02349  -2891101.85247                  23284836.8904
        43.2504         26.5004
  22008703.8314   -5132787.67249  -3980000.14547                  22008702.8554
        47.7504         33.5004
  20376669.6204   -3734104.28949  -2896578.14848                  20376668.8044
        51.0004         40.0004
  20691304.9484   -1161797.57049   -903809.44947                  20691302.5734
        50.7504         38.5004
  20522620.3554   -1380687.92249  -1073330.09848                  20522617.9484
        51.5004         40.0004
  20530175.5734   -2567163.98049  -1994458.53948                  20530172.5774
        50.7504         40.5004
 04  6 30 16 55 59.9990000  0  7G 3G 9G14G15G18G21G22
  22030714.2924   -3676678.05149  -2851033.05947                  22030714.3514
        46.2504         32.5004
  23277192.9254   -3777344.02349  -2922404.68446                  23277192.6754
        43.0004         24.5004
  21998064.4254   -5188697.87149  -4023566.51647                  21998063.5344
        47.0004         33.0004
  20368960.7844   -3774614.31249  -2928144.39848                  20368959.6514
        50.5004         39.7504
  20689062.4954   -1173582.27049   -912992.34047                  20689059.9014
        50.7504         38.0004
  20520052.3314   -1394183.71549  -1083846.30947                  20520049.9404
        51.2504         39.2504
  20525000.6594   -2594359.55149  -2015649.89148                  20524997.4444
        51.0004         40.5004
 04  6 30 16 56  9.9990000  0  7G 3G 9G14G15G18G21G22
  22023484.2614   -3714675.68749  -2880641.61347                  22023483.6984
        46.0004         32.7504
  23269557.1124   -3817469.42249  -2953671.23847                  23269556.4914
        44.2504         26.5004
  21987431.6904   -5244572.96949  -4067105.54747                  21987431.0194
        47.0004         33.7504
  20361257.6594   -3815096.08249  -2959688.63348                  20361256.3584
        50.7504         40.0004
  20686824.3394   -1185344.69149   -922157.87947                  20686821.7104
        50.5004         39.2504
  20517492.0034   -1407638.63349  -1094330.67248                  20517489.7724
        51.7504         40.0004
  20519831.2304   -2621524.93749  -2036817.72348                  20519827.9094
        50.7504         40.5004
 04  6 30 16 56 19.9990000  0  7G 3G 9G14G15G18G21G22
  22016264.5504   -3752614.32449  -2910204.18747                  22016264.5424
        46.5004         31.5004
  23261930.4804   -3857547.59049  -2984900.97347                  23261930.4914
        43.5004         26.0004
  21976806.0424   -5300412.45749  -4110616.82847                  21976805.1084
        47.2504         33.2504
  20353559.5814   -3855548.98849  -2991210.37948                  20353558.4404
        50.7504         39.7504
  20684590.0034   -1197084.37549   -931305.68447                  20684587.8194
        51.5004         39.2504
  20514939.3154   -1421052.18049  -1104782.78548                  20514937.2264
        51.0004         40.0004
  20514667.5894   -2648659.58649  -2057961.60548                  20514664.6054
        51.0004         40.7504
 04  6 30 16 56 29.9990000  0  7G 3G 9G14G15G18G21G22
  22009056.1834   -3790493.54349  -2939720.45747                  22009056.0694
        47.2504         32.0004
  23254312.8624   -3897578.07449  -3016093.55547                  23254313.0384
        44.0004         26.0004
  21966186.9564   -5356215.81649  -4154099.94547                  21966186.1204
        48.2504         33.5004
  20345867.2304   -3895972.64149  -3022709.33248                  20345865.7614
        50.7504         39.5004
  20682360.6594   -1208800.94949   -940435.48447                  20682358.3784
        51.5004         38.5004
  20512394.8004   -1434423.97349  -1115202.37547                  20512392.7414
        51.7504         39.2504
  20509509.9484   -2675763.22349  -2079081.31648                  20509506.9054
        51.0004         40.5004
 04  6 30 16 56 39.9990000  4  1
2.000000                                                    COMMENT
